Home   Weather   Rodez   Past weeks

Flag for France Past Weather in Rodez, Midi-Pyrénées, France — Yesterday and Last 2 Weeks

Now
73 °F

Sunny.


Feels Like: 77 °F
Forecast: 46 / 75 °F
Wind: 2 mph from North

Location: Rodez Airport

Current Time: Sep 28, 2016 at 5:28:36 PM

Latest Report: Sep 28, 2016 at 5:00 PM


Visibility: 10 mi

Pressure: 30.42 "Hg (28.25 "Hg at 642m altitude)

Humidity: 38%

Dew Point: 46 °F

Location of RodezLocation

Past Weather in Rodez — Graph

°F

Rodez Temperature Yesterday

Maximum temperature yesterday: 68 °F (at 5:00 PM)
Minimum temperature yesterday: 43 °F (at 8:00 AM)
Average temperature yesterday: 55 °F

High & Low Weather Summary for the Past Weeks

 TemperatureHumidityPressure
High82 °F (Sep 13, 4:00 PM)100% (Sep 14, 9:30 AM)30.48 "Hg (Sep 14, 9:30 AM)
Low41 °F (Sep 22, 6:00 AM)35% (Sep 13, 4:00 PM)29.83 "Hg (Sep 13, 6:00 PM)
Average58 °F78%30.13 "Hg
* Reported Sep 13 4:00 PM — Sep 28 4:00 PM, Rodez, Weather by CustomWeather, © 2016

Note: Actual official high and low records may vary slightly from our data, if they occured in-between our weather recording intervals... More about our weather records

Advertising

Rodez Weather History for the Previous 24 Hours

Scroll right to see more
 ConditionsComfort  
Time TempWeatherWind HumidityBarometerVisibility
4:00 PM
Wed, Sep 28
75 °FPassing clouds.5 mph39%30.42 "HgN/A
3:30 PM73 °FSunny.2 mph38%30.42 "Hg10 mi
3:00 PM73 °FSunny.3 mph41%30.42 "Hg10 mi
2:30 PM72 °FSunny.3 mph44%30.45 "Hg10 mi
2:00 PM72 °FSunny.3 mph44%30.45 "Hg10 mi
1:30 PM70 °FSunny.2 mph43%30.45 "Hg10 mi
1:00 PM68 °FSunny.3 mph46%30.45 "Hg10 mi
12:30 PM66 °FSunny.3 mph52%30.48 "Hg10 mi
12:00 PM66 °FSunny.1 mph52%30.48 "Hg10 mi
11:30 AM63 °FSunny.2 mph59%30.48 "Hg10 mi
11:00 AM61 °FPassing clouds.3 mph68%30.48 "HgN/A
10:30 AM59 °FSunny.3 mph68%30.48 "Hg10 mi
10:00 AM57 °FSunny.No wind72%30.48 "Hg10 mi
9:30 AM54 °FSunny.No wind77%30.45 "Hg10 mi
9:00 AM48 °FSunny.2 mph94%30.45 "Hg10 mi
8:30 AM43 °FSunny.2 mph100%30.45 "Hg10 mi
8:00 AM41 °FSunny.5 mph93%30.42 "Hg10 mi
7:30 AM43 °FClear.No wind93%30.45 "Hg10 mi
7:00 AM43 °FClear.No wind93%30.42 "Hg10 mi
6:30 AM45 °FClear.2 mph93%30.42 "Hg10 mi
6:00 AM45 °FClear.2 mph93%30.42 "Hg10 mi
5:30 AM43 °FClear.2 mph93%30.42 "Hg10 mi
5:00 AM46 °FClear.3 mph87%30.42 "Hg10 mi
4:30 AM45 °FClear.3 mph93%30.42 "Hg10 mi
4:00 AM43 °FClear.1 mph93%30.42 "Hg10 mi
3:30 AM45 °FClear.No wind93%30.42 "Hg10 mi
3:00 AM48 °FClear.2 mph82%30.42 "Hg10 mi
2:30 AM46 °FClear.No wind87%30.42 "Hg10 mi
2:00 AM46 °FClear.No wind87%30.39 "Hg10 mi
1:30 AM46 °FClear.No wind87%30.39 "Hg10 mi
1:00 AM46 °FClear.2 mph87%30.39 "Hg10 mi
12:30 AM48 °FClear.No wind82%30.39 "Hg10 mi
12:00 AM52 °FClear.No wind72%30.39 "Hg10 mi
11:30 PM
Tue, Sep 27
50 °FClear.2 mph82%30.39 "Hg10 mi
11:00 PM52 °FClear.3 mph72%30.39 "Hg10 mi
10:30 PM57 °FClear.1 mph59%30.39 "Hg10 mi
10:00 PM57 °FClear.6 mph59%30.39 "Hg10 mi
9:30 PM57 °FClear.3 mph55%30.39 "Hg10 mi
9:00 PM57 °FClear.6 mph59%30.36 "Hg10 mi
8:30 PM59 °FClear.6 mph51%30.36 "Hg10 mi
8:00 PM57 °FClear.5 mph55%30.36 "Hg10 mi
7:30 PM59 °FSunny.7 mph59%30.33 "Hg10 mi
7:00 PM64 °FSunny.6 mph49%30.33 "Hg10 mi
6:30 PM64 °FSunny.6 mph46%30.33 "Hg10 mi
6:00 PM64 °FPassing clouds.7 mph49%30.33 "HgN/A
5:30 PM66 °FPassing clouds.9 mph49%30.33 "HgN/A
5:00 PM68 °FPassing clouds.10 mph46%30.30 "HgN/A
Weather by CustomWeather, © 2016

See weather overviewHow to use our weather pages